Flag for Montenegro Weather past 2 weeks in Nikšić, Montenegro

Now
64 °F

Partly sunny.


Feels Like: 64 °F
Forecast: 35 / 60 °F
Wind: N/A

Location: Niksic

Current Time: Sep 22, 2014 at 10:42:00 AM

Latest Report: Sep 22, 2014 at 10:00 AM


Visibility: 13 mi

Pressure: 29.88 "Hg

Humidity: 96%

Dew point: 63 °F

Location of NikšićLocation

Historic Weather in Nikšić — Graph

°F

Nikšić temperature yesterday

Maximum temperature yesterday: 71 °F (at 1:00 PM)
Minimum temperature yesterday: 56 °F (at 6:00 AM)
Average temperature yesterday: 64 °F

Past Weeks' High & Low Weather Summary

 TemperatureHumidityPressure
High78 °F (Sep 10, 1:00 PM)100% (Sep 8, 8:00 AM)30.22 "Hg (Sep 8, 8:00 AM)
Low48 °F (Sep 16, 7:00 AM)52% (Sep 16, 3:00 PM)29.83 "Hg (Sep 7, 11:00 AM)
Average63 °F88%30.00 "Hg
* Reported Sep 7 9:00 AM — Sep 22 9:00 AM, Nikšić, Weather by CustomWeather, © 2014

Note: Actual official high and low records may vary slightly from our data, if they occured in-between our weather recording intervals... More about our weather records

Advertising

Nikšić weather history for previous 24 hours

 ConditionsComfort  
Time TempWeatherWind HumidityBarometerVisibility
9:00 AM
Sep 22
62 °FOvercast.N/A99%29.90 "Hg12 mi
8:00 AM60 °FLight rain. Overcast.N/A99%29.88 "Hg9 mi
7:00 AM61 °FOvercast.N/A98%29.95 "Hg9 mi
6:00 AM61 °FOvercast.N/A97%29.95 "Hg9 mi
5:00 AM61 °FLight rain. Overcast.N/A97%29.95 "Hg9 mi
2:00 AM62 °FLight rain. Overcast.N/A95%29.98 "Hg9 mi
11:00 PM
Sep 21
65 °FOvercast.N/A97%30.01 "Hg9 mi
10:00 PM66 °FOvercast.N/A92%29.99 "Hg9 mi
9:00 PM69 °FOvercast.N/A88%29.99 "Hg9 mi
8:00 PM66 °FOvercast.N/A93%29.99 "Hg11 mi
7:00 PM66 °FOvercast.N/A93%29.99 "Hg11 mi
6:00 PM68 °FOvercast.N/A90%29.99 "Hg11 mi
5:00 PM69 °FPartly sunny.N/A88%29.97 "Hg12 mi
4:00 PM68 °FLight rain. Overcast.N/A90%29.98 "Hg11 mi
3:00 PM70 °FOvercast.N/A84%29.97 "Hg12 mi
2:00 PM70 °FOvercast.N/A81%29.97 "Hg12 mi
1:00 PM71 °FOvercast.N/A83%29.99 "Hg12 mi
11:00 AM67 °FLight rain. Overcast.N/A88%30.01 "Hg11 mi
10:00 AM62 °FOvercast.N/A95%30.04 "Hg11 mi
Weather by CustomWeather, © 2014

See weather overviewHow to use our weather pages